< < Back
Terminal Aerodrome Forecast


Current Version              Previous Versions:   1  2  3  4  5  6  7  8  9  

Terminal Aerodrome Forecast

268
FTUS42 KGSP 190903 AAA
TAFCLT
TAF AMD
KCLT 190903Z 1909/2006 05005KT P6SM FEW060 SCT250
     FM200100 07003KT P6SM SCT070 BKN250=



Latest METAR

411
SAUS70 KWBC 191500 RRB
MTRCLT
METAR KCLT 191452Z 01007KT 10SM CLR 09/M06 A3018 RMK AO2 SLP221
T00941061 51017


USA.gov is the U.S. government's official web portal to all federal, state and local government web resources and services.